Bookmark and Share
Track history (hours):
 

City Of Sidon

Last reported at 2014-Apr-18 04:33 UTC. Time now 2014-Apr-18 20:49 UTC.
Position N 43°07' E 009°34'.

Length 109 m; draft 4.2 m.

Type: Cargo ship. MMSI: 371966000.

NotesDate/timePositionNaut miles runAvg speedWind from/ knotsBaromVisibWave heightAir tempDewpointWater temp
2014-Apr-18 04:33N 43°07' E 009°34'8 8.5
2014-Apr-18 03:33N 43°15' E 009°28'9 9.2
2014-Apr-18 02:33N 43°23' E 009°21'9 9.2
2014-Apr-18 01:33N 43°30' E 009°15'9 9.0
2014-Apr-18 00:33N 43°38' E 009°08'9 9.1
2014-Apr-17 23:33N 43°46' E 009°01'9 9.1
2014-Apr-17 22:33N 43°53' E 008°54'9 9.2
2014-Apr-17 21:33N 44°01' E 008°47'9 9.4
2014-Apr-17 20:33N 44°09' E 008°40'9 9.5
2014-Apr-17 19:33N 44°16' E 008°32'3 2.8
2014-Apr-17 18:28N 44°19' E 008°30'0 0.0
2014-Apr-17 17:31N 44°19' E 008°30'0 0.0
2014-Apr-17 16:28N 44°19' E 008°30'0 0.0
2014-Apr-17 15:28N 44°19' E 008°30'0 0.0
2014-Apr-17 14:28N 44°19' E 008°30'0 0.0
2014-Apr-17 13:31N 44°19' E 008°30'0 0.0
2014-Apr-17 12:31N 44°19' E 008°30'0 0.0
2014-Apr-17 11:25N 44°19' E 008°30'0 0.0
2014-Apr-17 10:16N 44°19' E 008°30'0 0.0
2014-Apr-17 09:22N 44°19' E 008°30'0 0.0
2014-Apr-17 08:22N 44°19' E 008°30'0 0.0
2014-Apr-17 07:22N 44°19' E 008°30'0 0.0
2014-Apr-17 05:28N 44°19' E 008°30'0 0.4
2014-Apr-17 04:32N 44°19' E 008°30'1 0.9
2014-Apr-17 03:27N 44°18' E 008°31'0 0.0
2014-Apr-17 02:30N 44°18' E 008°31'0 0.0
2014-Apr-17 00:18N 44°18' E 008°31'0 0.0
2014-Apr-16 23:18N 44°18' E 008°31'0 0.0
2014-Apr-16 22:15N 44°18' E 008°31'0 0.0
2014-Apr-16 21:21N 44°18' E 008°31'0 0.0
2014-Apr-16 20:15N 44°18' E 008°31'0 0.0
2014-Apr-16 19:21N 44°18' E 008°31'0 0.1
2014-Apr-16 18:27N 44°18' E 008°31'0 0.0
2014-Apr-16 17:33N 44°18' E 008°31'0 0.1
2014-Apr-16 16:33N 44°18' E 008°31'0 0.0
2014-Apr-16 15:30N 44°18' E 008°31'0 0.2
2014-Apr-16 14:32N 44°18' E 008°31'0 0.0
2014-Apr-16 13:14N 44°18' E 008°31'0 0.1
2014-Apr-16 12:08N 44°18' E 008°31'0 0.0
2014-Apr-16 11:20N 44°18' E 008°31'0 0.1
2014-Apr-16 10:32N 44°18' E 008°31'1 0.8
2014-Apr-16 09:22N 44°18' E 008°30'1 1.1
2014-Apr-16 08:19N 44°17' E 008°28'0 0.0
2014-Apr-16 07:31N 44°17' E 008°28'0 0.0
2014-Apr-16 03:31N 44°17' E 008°29'0 0.0
2014-Apr-16 00:04N 44°17' E 008°29'0 0.0
2014-Apr-15 23:31N 44°17' E 008°29'0 0.0
2014-Apr-15 22:16N 44°17' E 008°29'0 0.0
2014-Apr-15 21:07N 44°17' E 008°29'0 0.0
2014-Apr-15 19:34N 44°17' E 008°29'0 0.0
2014-Apr-15 18:12N 44°17' E 008°28'0 0.0
2014-Apr-15 17:30N 44°17' E 008°29'0 0.0
2014-Apr-15 10:34N 44°17' E 008°28'0 0.1
2014-Apr-15 05:31N 44°17' E 008°28'0 0.0
2014-Apr-15 03:30N 44°17' E 008°28'0 0.0
2014-Apr-15 01:33N 44°17' E 008°28'0 0.0
2014-Apr-15 00:33N 44°17' E 008°28'0 0.0
2014-Apr-14 23:33N 44°17' E 008°28'0 0.0
2014-Apr-14 22:33N 44°17' E 008°28'0 0.0
2014-Apr-14 20:30N 44°17' E 008°28'0 0.0
2014-Apr-14 18:33N 44°17' E 008°28'0 0.0
2014-Apr-14 16:30N 44°17' E 008°28'0 0.0
2014-Apr-14 14:30N 44°17' E 008°29'4 1.1
2014-Apr-14 10:33N 44°13' E 008°31'5 4.9
2014-Apr-14 09:33N 44°08' E 008°34'0 0.3
2014-Apr-14 08:31N 44°08' E 008°34'1 1.5
2014-Apr-14 07:33N 44°07' E 008°35'1 0.7
2014-Apr-14 06:33N 44°07' E 008°36'0 0.3
2014-Apr-14 05:33N 44°07' E 008°36'35 5.0
2014-Apr-13 22:33N 43°43' E 009°11'9 9.3
2014-Apr-13 21:33N 43°34' E 009°04'10 9.9
2014-Apr-13 20:33N 43°25' E 009°06'8 8.1
2014-Apr-13 19:33N 43°19' E 009°13'10 9.6
2014-Apr-13 18:33N 43°18' E 009°26'1010.2
2014-Apr-13 17:33N 43°09' E 009°33'407 8.6
2014-Apr-11 18:10N 36°57' E 013°10'6 9.5
2014-Apr-11 17:29N 36°53' E 013°16'10 9.3
2014-Apr-11 16:27N 36°48' E 013°26'101 2.6
2014-Apr-10 01:05N 35°26' E 014°39'6 1.5
2014-Apr-09 21:20N 35°29' E 014°33'4 1.0
2014-Apr-09 17:13N 35°30' E 014°28'1 1.1
2014-Apr-09 16:31N 35°29' E 014°27'1 1.1
2014-Apr-09 15:25N 35°29' E 014°26'1 1.2
2014-Apr-09 14:33N 35°29' E 014°25'2 1.1
2014-Apr-09 13:13N 35°28' E 014°23'1 1.4
2014-Apr-09 12:28N 35°27' E 014°22'24 8.1
2014-Apr-09 09:31N 35°06' E 014°08'9 9.5
2014-Apr-09 08:33N 34°59' E 014°03'10 9.4
2014-Apr-09 07:33N 34°50' E 013°57'37 9.1
2014-Apr-09 03:33N 34°18' E 013°35'10 9.6
2014-Apr-09 02:33N 34°10' E 013°30'7 2.3
2014-Apr-08 23:32N 34°04' E 013°25'6 5.9
2014-Apr-08 22:33N 34°02' E 013°18'10 9.5
2014-Apr-08 21:33N 34°01' E 013°07'9 8.6
2014-Apr-08 20:33N 33°56' E 012°59'9 9.3
2014-Apr-08 19:32N 33°48' E 012°53'10 9.7
2014-Apr-08 18:33N 33°40' E 012°46'10 9.7
2014-Apr-08 17:33N 33°33' E 012°39'9 9.5
2014-Apr-08 16:33N 33°25' E 012°31'  

Dump ship's entire track history

sailing weather and tide predictions

City Of Sidon — H8BG — position and weather